Miscellaneous Local Product
Issued by NWS North Platte, NE

Home | Current Version | Previous Version | Graphics & Text | Print | Product List | Glossary On
Versions: 1 2 3 4 5 6 7 8 9 10 11 12 13 14 15 16 17 18 19 20 21 22 23 24 25 26 27 28 29 30 31 32 33 34 35 36 37 38 39 40 41 42 43 44 45 46 47 48 49 50
000
AXUS43 KLBF 180810
MISLBF


WESTERN AND NORTH CENTRAL NEBRASKA HOURLY WEATHER ROUNDUP
NATIONAL WEATHER SERVICE NORTH PLATTE NE
200 AM CST THU DEC 18 2014

***STATIONS NOT REPORTING VARIABLES SUCH AS SKY/WEATHER OR
PRESSURE ARE PROVIDED BY THE NEBRASKA DEPARTMENT OF
ROADS...RAWS...AND APRS NETWORKS...AND ARE NOT UNDER
NATIONAL WEATHER SERVICE QUALITY CONTROL***

...OBSERVATIONS IN AND NEAR THE EASTERN PANHANDLE OF NEBRASKA...

CITY           SKY/WX    TMP DP  RH WIND       PRES   REMARKS
PINE RIDGE     CLOUDY    17  13  84 S7        30.01F WCI   8
CHADRON        FOG       17  15  92 SW5       30.02S VSB 1/4 WCI  10
ALLIANCE       FOG       19  17  92 SW8       29.99F VSB 1/4 WCI   9
SIDNEY         FOG       17  14  88 SW8       29.98F VSB 3/4 WCI   7
WHITECLAY        N/A     13  10  85 S5          N/A  WCI   5
CRESCENT LAKE    N/A     22  20  93 CALM        N/A
LISCO            N/A     17  13  82 W7          N/A  WCI   8
BIG SPRINGS      N/A     25  24  93 SW5         N/A  WCI  19
$$

...OBSERVATIONS IN NORTH CENTRAL NEBRASKA...

CITY           SKY/WX    TMP DP  RH WIND       PRES   REMARKS
VALENTINE      CLOUDY    24  21  88 S9        30.07F WCI  14
THEDFORD       CLOUDY    24  22  95 SW7       30.07F FOG     WCI  16
AINSWORTH      CLOUDY    22  21  96 S3        30.08F
O`NEILL        CLOUDY    21  19  93 CALM      30.15F
ORD            CLOUDY    23  20  88 SE7       30.14F WCI  15
BROKEN BOW     CLOUDY    24  22  91 S7        30.11F FOG     WCI  16
BROWNLEE         N/A     22  20  91 CALM        N/A
SPRINGVIEW       N/A     22  20  90 CALM        N/A
BREWSTER         N/A     26  25  99 CALM        N/A
ROSE             N/A     27  27 100 MISG        N/A
SARGENT          N/A     23  22  94 CALM        N/A
COMSTOCK         N/A     29  26  90 S5          N/A  WCI  23
CHAMBERS         N/A     21  18  88 CALM        N/A
$$

...OBSERVATIONS IN SOUTHWEST NEBRASKA AND FAR NORTHEAST COLORADO...

CITY           SKY/WX    TMP DP  RH WIND       PRES   REMARKS
WRAY           CLOUDY   N/A N/A N/A S5        30.04F VSB 1
IMPERIAL       CLOUDY    25  22  88 S8        30.06F FOG     WCI  16
OGALLALA       CLOUDY    25  24  96 SW7       30.05S WCI  17
NORTH PLATTE   CLOUDY    23  22  96 S6        30.08F FOG     WCI  16
MCCOOK         LGT SNOW  25  23  92 SE3       30.10F FOG
LEXINGTON      FLURRIES  25  23  94 S3        30.12S
PAXTON           N/A     24  23  94 S7          N/A  WCI  16
BRADY            N/A     23  21  93 CALM        N/A
GOTHENBURG       N/A     26  24  92 CALM        N/A
CALLAWAY         N/A     23  22  96 SE3         N/A
$$

...NORTH PLATTE AREA...

CITY           SKY/WX    TMP DP  RH WIND       PRES   REMARKS
AIRPORT        CLOUDY    23  22  96 S6        30.08F FOG     WCI  16
DOWNTOWN         N/A     23  22  94 CALM        N/A
$$

...SOME WEATHER OBSERVATIONS FROM AROUND THE REGION...

CITY           SKY/WX    TMP DP  RH WIND       PRES   REMARKS
DENVER         MOCLDY    29  25  85 SW3       29.97S
LARAMIE        CLEAR     10   6  84 VRB3      29.96R
CHEYENNE       PTCLDY    30  17  58 W16       29.94F WCI  19
SCOTTSBLUFF    FOG       14  12  92 N5        30.01F VSB 1/4 WCI   6
RAPID CITY     CLOUDY    22  20  92 S8        29.99F WCI  12
PIERRE         CLOUDY    19  17  92 SE9       30.12F FOG     WCI   8
WINNER         CLOUDY    23  20  88 SE10      30.11F WCI  12
SIOUX FALLS    CLOUDY    15  12  88 NE5       30.24F WCI   8
OMAHA          CLOUDY    28  21  75 E5        30.26S WCI  23
GRAND ISLAND   LGT SNOW  23  21  92 E5        30.18F FOG     WCI  17
KANSAS CITY    LGT SNOW  28  26  92 E6        30.23F VSB 1   WCI  22
WICHITA        LGT SNOW  32  29  88 E6        30.13F FOG     WCI  26
HAYS           CLOUDY    27  18  69 NE7       30.11F WCI  19
LIBERAL        CLOUDY    36  32  87 SE5       30.04S WCI  32
GOODLAND       CLOUDY    25  23  92 CALM      30.04F
$$



USA.gov is the U.S. government's official web portal to all federal, state and local government web resources and services.